User: anonymous   Login
Location: Unspecified
(0.0000°N, 0.0000°E)
Time: 03:15:31
(UTC+02:00)
Language:

Meteor 2-8 Rocket - Orbit

View from above orbital plane
View from above orbital plane
View from above satellite
View from above satellite

Ground track
Ground track

The orbit data is extracted from the following two-line orbital elements,

1 13114U 82025B   17086.92478941 +.00000025 +00000-0 +91654-5 0  9990
2 13114 082.5364 267.4186 0015001 023.3737 086.5915 13.84659270768882
Epoch (UTC): 27 March 2017 22:11:41
Eccentricity: 0.0015001
inclination: 82.5364°
perigee height: 936 km
apogee height: 958 km
right ascension of ascending node: 267.4186°
argument of perigee: 23.3737°
revolutions per day: 13.84659270
mean anomaly at epoch: 86.5915°
orbit number at epoch: 76888

The dashed part of the orbit path shows where the satellite is in the earth's shadow,  

DLR